Temp
76 79 79 79 79 78 79 79 79 80 79 80 79 77 79 80 81 80 78 77 73 81
75 75 77 76 79 81 78 77 77 78 79 80 79 78 79 77 77 79 79 78 76 71
78 76 76 78 79 80 80 79 77 77 79 79 78 77 77 77 78 78 80 80 77 76
79 79 78 80 80 80 80 80 78 78 77 76 75 75 76 77 78 75 73 72 74 75
80 80 80 80 80 80 80 81 80 79 78 78 76 75 75 75 78 76 75 77 75 76
82 81 81 82 82 82 82 82 81 79 78 78 78 75 73 72 73 77 79 79 75 74
80 80 81 82 82 83 82 82 80 80 80 79 78 76 75 73 72 76 78 80 80 80
79 79 79 80 79 82 81 82 81 80 80 80 79 80 76 75 74 72 75 79 80 82
75 76 76 77 78 78 79 80 79 79 80 79 82 71 69 74 78 77 76 77 79 79
73 73 74 75 75 75 76 77 77 78 79 78 79 68 66 68 80 79 78 76 76 78
71 71 72 72 72 73 75 75 76 77 78 78 80 66 65 67 78 79 79 78 77 77
69 69 69 69 70 72 72 73 74 76 76 76 77 65 63 65 78 79 77 78 77 77
67 67 67 68 69 71 71 70 73 74 76 73 75 68 61 63 80 78 79 78 77 67
62 60 64 67 69 69 69 69 68 68 72 75 74 75 62 59 73 78 80 81 80 82
MSLP
1012.69 1012.53 1012.51 1012.43 1012.40 1012.33 1011.69 1011.90 1011.98 1012.40 1012.76 1012.83 1013.03 1013.29 1013.79 1014.05 1014.04 1014.17 1014.36 1014.50 1014.79 1014.43
1012.42 1012.47 1012.29 1012.30 1012.01 1011.40 1011.19 1011.35 1011.58 1011.78 1011.97 1012.08 1012.29 1012.78 1012.98 1013.53 1013.67 1013.80 1013.77 1013.85 1014.19 1014.48
1012.02 1012.26 1012.01 1011.70 1011.27 1010.86 1010.58 1010.93 1011.14 1011.33 1011.33 1011.74 1011.69 1012.03 1012.40 1012.71 1012.97 1013.21 1013.27 1013.26 1013.56 1013.75
1011.54 1011.35 1011.02 1010.59 1010.36 1010.25 1010.18 1010.36 1010.54 1010.86 1011.06 1011.40 1011.47 1011.71 1012.00 1012.27 1012.43 1012.67 1012.93 1012.75 1012.94 1013.12
1011.14 1011.03 1010.81 1010.41 1010.20 1010.11 1009.94 1009.95 1010.19 1010.50 1010.80 1010.89 1011.08 1011.33 1011.73 1011.93 1011.77 1011.95 1011.91 1011.84 1012.12 1012.25
1010.71 1010.52 1010.17 1009.94 1009.72 1009.68 1009.58 1009.63 1009.85 1010.17 1010.37 1010.41 1010.59 1010.92 1011.31 1011.51 1011.42 1011.36 1011.08 1010.99 1011.42 1011.58
1010.52 1010.49 1010.30 1010.26 1009.65 1009.10 1009.21 1009.22 1009.31 1009.41 1009.53 1009.67 1009.89 1010.22 1010.50 1010.82 1010.92 1010.78 1010.62 1010.52 1010.46 1010.50
1010.58 1010.62 1010.46 1009.98 1009.88 1009.58 1009.41 1009.07 1008.92 1009.05 1009.19 1009.25 1009.29 1009.43 1009.71 1009.95 1010.11 1010.24 1010.03 1009.79 1009.62 1009.66
1010.99 1010.73 1010.47 1010.20 1009.90 1009.71 1009.37 1009.05 1009.19 1009.09 1008.99 1008.93 1008.90 1008.92 1009.24 1009.25 1009.22 1009.36 1009.37 1009.19 1009.18 1009.38
1011.04 1010.62 1010.20 1009.89 1009.64 1009.48 1009.20 1009.15 1009.17 1008.84 1008.63 1008.48 1008.65 1008.86 1009.06 1009.20 1008.91 1008.74 1008.76 1008.93 1009.04 1009.04
1011.50 1011.10 1010.63 1010.14 1009.65 1009.18 1008.89 1008.71 1008.50 1008.29 1008.03 1008.05 1007.95 1008.16 1008.38 1008.54 1008.51 1008.29 1008.27 1008.34 1008.44 1008.54
1011.89 1011.33 1010.84 1010.23 1009.72 1009.26 1008.87 1008.36 1008.05 1007.79 1007.44 1007.50 1007.43 1007.53 1007.76 1008.16 1007.75 1007.56 1007.63 1007.73 1007.90 1008.01
1012.16 1011.57 1010.85 1010.16 1009.49 1008.97 1008.59 1008.06 1007.61 1007.19 1006.93 1006.76 1006.93 1006.85 1007.07 1007.77 1007.23 1007.00 1006.93 1007.02 1007.26 1007.56
1012.79 1012.16 1011.23 1010.06 1009.22 1008.58 1008.09 1007.71 1007.32 1006.88 1006.34 1006.09 1006.15 1006.08 1006.31 1006.60 1006.87 1006.44 1006.13 1005.91 1005.98 1006.20
Wind_Speed
8 7 8 8 5 5 4 7 8 7 9 11 10 10 11 10 10 10 10 13 8 9
5 7 7 9 8 5 4 6 8 9 10 12 11 12 11 9 10 11 11 11 11 7
5 6 9 9 9 8 5 7 9 9 10 11 9 11 11 10 10 11 9 8 11 10
6 8 7 7 8 9 8 8 8 8 8 10 10 9 11 11 10 11 10 8 10 12
5 4 4 5 5 6 7 5 7 6 7 8 8 9 12 12 11 13 12 13 13 13
6 5 5 4 3 3 2 3 5 5 7 7 7 8 10 11 10 12 11 11 11 11
7 8 6 8 6 6 5 5 6 7 7 7 7 8 9 11 11 12 12 12 14 14
10 9 10 9 9 8 7 6 6 6 6 6 7 7 9 9 10 11 12 13 12 12
9 9 10 11 11 11 11 9 8 8 7 7 6 5 9 9 7 9 9 9 8 8
12 12 12 11 10 11 11 11 11 10 9 9 9 8 9 9 8 7 8 8 8 7
12 13 13 13 13 13 11 12 11 12 11 10 9 10 11 12 10 9 10 9 9 9
14 15 14 15 15 13 12 11 11 12 12 12 13 11 12 9 10 10 11 10 10 10
16 16 16 16 15 14 12 11 9 11 12 12 13 11 11 10 9 10 10 10 10 11
15 15 17 17 15 14 14 13 11 10 10 12 12 13 13 13 11 11 11 11 10 10
Wind_Direction
252 252 245 229 236 251 246 251 244 237 232 232 225 209 216 227 226 227 227 229 219 239
248 224 231 240 242 263 267 264 252 234 226 228 217 221 216 223 230 234 231 234 235 236
266 247 251 253 267 294 285 269 256 240 228 234 220 222 216 216 223 225 232 238 239 236
283 293 297 295 301 297 290 265 248 238 234 233 220 209 220 221 217 225 227 223 226 232
280 287 295 291 288 291 283 255 242 244 244 243 233 222 222 219 221 229 224 231 221 231
310 301 293 286 173 169 191 190 203 218 233 244 244 233 227 229 232 233 237 235 229 225
288 285 268 285 275 185 201 202 206 214 223 231 231 230 233 235 238 247 253 258 245 238
294 291 292 288 283 281 273 242 216 217 224 229 221 218 220 229 238 243 255 254 250 250
316 293 286 287 288 292 283 263 247 246 242 245 251 213 216 227 237 244 249 257 256 254
336 331 327 316 290 271 271 274 274 258 241 236 239 223 233 229 243 239 239 247 256 258
329 321 319 318 313 310 298 273 260 258 253 248 243 207 216 216 235 248 249 247 250 258
328 320 313 304 300 298 296 293 279 262 255 251 256 223 223 199 224 237 247 250 247 249
320 313 308 307 302 297 289 287 280 278 269 260 256 254 226 209 249 246 251 248 251 227
318 315 310 308 300 296 293 288 274 269 267 270 264 259 225 210 242 257 254 256 257 255